Theta_e
335 333 330 332 332 331 332 331 331 332 330 330 330 329 330 331 331 332 334 343 346 343 345 344 343 343 349 349 349 349 349 348 347 345 344 342 341 340 338 338 339 340 340
334 333 334 332 331 331 330 330 329 328 327 328 328 329 327 329 331 331 332 334 342 342 344 344 343 342 347 349 348 347 348 347 346 345 343 341 339 339 339 340 340 341 341
332 335 332 331 330 331 331 329 328 329 327 328 327 327 330 331 331 331 331 334 335 342 344 343 343 343 346 348 348 347 346 347 346 344 343 341 340 341 340 341 341 341 341
334 333 331 330 331 330 330 328 328 326 326 325 323 325 329 327 330 329 329 328 331 332 339 342 344 345 346 348 349 348 347 346 345 344 343 342 341 342 342 341 340 340 338
337 333 332 330 331 330 328 328 327 326 324 324 324 324 325 325 327 330 328 330 329 332 334 339 342 344 345 348 348 348 347 345 343 344 343 343 342 341 339 339 339 338 337
337 334 332 331 331 329 326 327 325 326 325 323 326 325 324 325 326 326 327 330 329 329 333 333 336 338 345 348 347 348 346 346 344 343 342 341 341 341 339 340 338 337 336
336 333 330 330 330 326 326 327 325 325 323 323 320 320 320 323 324 324 326 325 327 328 331 333 334 335 340 345 346 346 347 347 345 342 340 339 340 340 340 337 337 336 335
332 332 330 330 327 327 326 325 324 322 321 324 319 315 311 315 320 324 325 326 326 329 331 332 333 334 336 340 341 343 346 345 345 342 340 339 340 339 338 337 336 334 333
333 331 331 329 327 328 325 324 323 321 318 320 321 316 310 308 313 320 323 323 325 324 327 330 333 333 335 338 341 343 344 344 344 342 339 340 340 338 335 336 335 332 330
331 332 333 330 328 327 324 323 325 322 321 318 319 323 319 316 310 310 318 320 323 325 325 328 330 333 333 336 341 342 341 341 343 342 339 340 338 336 335 334 331 327 325
331 333 332 329 327 326 324 324 324 323 322 319 318 317 318 318 318 313 309 315 320 322 324 327 328 334 335 335 340 339 337 338 338 338 338 339 337 335 332 331 326 328 330
328 331 331 328 327 326 325 326 324 322 323 322 322 320 317 317 316 313 311 311 313 318 326 329 329 332 331 329 331 335 333 332 331 332 333 334 334 333 328 327 327 330 330
326 326 326 325 326 327 326 325 324 323 323 323 323 321 321 321 322 317 314 313 314 317 325 328 329 332 332 330 333 335 333 329 327 327 327 327 327 327 326 327 329 330 329
325 326 327 326 327 326 327 325 324 324 325 325 322 322 322 323 324 321 318 317 313 317 322 326 329 330 332 333 333 331 330 326 322 320 320 321 322 325 328 329 330 330 330
329 327 327 326 326 326 327 325 324 324 324 325 324 323 323 325 325 324 322 323 317 315 318 321 323 329 330 331 329 326 324 322 320 318 318 319 321 323 325 325 326 326 327
326 327 326 326 326 328 327 325 325 326 324 323 324 322 322 323 324 324 322 323 319 318 317 321 323 326 328 327 327 325 323 321 319 318 318 318 319 321 321 322 322 323 323
326 326 327 326 326 325 327 326 324 324 323 323 323 324 321 323 324 324 324 323 321 320 319 322 323 325 326 324 322 323 324 321 319 319 320 319 318 318 319 319 319 320 319
326 327 327 327 327 327 326 325 325 326 325 323 324 324 321 326 324 323 321 320 320 321 320 318 321 322 322 324 321 322 323 324 322 321 319 317 317 316 316 315 314 314 313
326 327 328 328 327 327 326 326 327 326 325 324 325 325 323 324 323 322 323 322 322 323 322 320 318 321 322 323 322 323 322 322 323 320 316 316 315 314 312 311 309 309 308
328 326 327 328 329 328 328 328 326 324 325 327 326 326 326 324 323 321 322 323 323 321 321 319 319 319 320 321 320 317 317 319 316 316 314 312 312 311 310 309 309 308 305
327 328 327 325 324 324 325 325 324 324 325 326 327 327 325 325 322 322 323 323 323 321 319 318 317 317 317 317 316 317 314 314 314 313 310 309 307 305 305 308 309 306 303
325 324 323 324 321 322 307 311 318 323 325 323 323 323 321 320 317 313 313 314 321 320 318 318 317 316 316 316 317 315 314 313 310 316 310 306 306 303 303 301 303 302 301
322 322 321 321 318 315 306 307 310 326 325 324 323 322 323 322 319 318 311 311 310 310 315 320 317 317 315 316 316 314 313 313 312 314 311 306 303 298 298 300 301 300 299
322 320 321 321 316 313 304 303 307 325 324 324 325 324 324 323 320 322 321 321 321 321 321 322 320 320 319 319 318 316 315 316 314 315 313 303 301 296 296 296 299 298 297
323 322 323 317 315 312 301 301 317 327 325 322 323 325 323 322 306 307 321 319 319 318 308 307 308 307 305 307 314 317 316 313 310 313 312 305 301 298 296 293 295 298 296
323 323 322 322 313 313 299 300 319 324 320 318 319 318 309 315 303 306 321 320 317 318 319 318 315 310 311 308 309 318 318 313 312 310 313 307 302 301 296 296 293 294 293
Wind_Speed
5 4 4 4 5 5 5 5 5 5 5 6 6 6 5 7 7 3 3 14 15 17 14 15 13 13 14 16 16 18 21 20 19 19 18 19 18 16 16 16 14 10 11
5 4 4 4 5 5 4 5 4 4 4 3 4 5 5 5 6 5 2 3 11 12 12 13 13 14 15 18 18 19 20 20 20 19 19 18 18 17 17 15 13 14 15
6 5 4 3 4 4 5 3 3 3 3 3 4 5 4 5 5 5 4 3 5 12 13 14 15 14 14 18 20 21 19 20 21 20 19 18 18 16 17 16 15 15 17
8 5 4 3 3 3 4 3 3 3 4 3 3 4 3 2 3 4 4 4 4 5 10 14 14 14 15 16 20 21 21 22 21 19 19 19 18 15 14 13 17 18 18
7 6 4 4 4 4 3 3 4 3 3 3 4 3 3 2 3 3 6 5 6 5 5 11 15 14 14 15 20 22 22 21 18 18 20 19 18 16 17 16 18 20 19
7 6 5 5 5 4 3 3 5 4 3 4 3 3 3 3 3 4 4 3 4 5 5 6 7 8 14 16 19 22 22 23 20 20 19 19 19 19 20 19 20 19 18
7 6 5 4 5 4 5 5 4 5 4 4 3 1 2 4 4 4 4 4 5 5 6 5 5 5 6 16 17 21 23 25 24 23 21 19 19 20 20 23 20 19 17
7 6 5 5 5 4 4 5 4 2 3 4 3 2 1 3 3 5 3 4 6 4 3 5 7 8 7 6 11 21 24 25 25 25 22 20 20 22 21 22 21 21 19
6 5 6 5 4 3 4 5 5 6 4 3 4 5 1 4 2 1 4 3 3 1 2 3 6 6 7 8 10 18 24 25 26 26 24 23 24 26 25 22 21 19 17
6 5 4 4 4 4 4 4 4 4 4 4 1 4 3 3 2 1 2 2 3 3 4 3 4 5 7 8 15 17 22 24 25 26 25 26 26 26 25 23 21 17 15
4 5 6 5 4 4 3 6 5 5 4 3 3 2 3 1 2 3 3 2 2 0 3 3 4 5 6 6 9 12 19 21 24 26 25 26 28 27 26 23 20 16 16
1 4 5 5 4 4 5 4 4 6 5 4 4 3 3 3 4 3 2 2 3 0 3 3 3 4 7 8 10 17 17 15 15 24 25 25 26 26 24 21 18 17 16
1 2 3 4 3 4 4 4 3 4 5 3 5 4 3 4 2 3 3 2 4 2 3 3 4 3 6 5 7 12 19 21 24 22 22 25 26 23 21 16 15 14 14
2 4 4 3 3 4 3 4 2 2 3 3 3 4 4 4 2 3 4 5 3 3 2 3 3 3 4 6 12 17 12 24 25 28 27 26 23 19 15 13 11 10 11
3 5 5 4 3 4 5 5 3 2 3 3 2 2 2 1 1 3 3 4 5 5 2 2 3 4 6 8 10 13 15 27 31 25 25 24 18 12 8 10 8 9 10
3 6 5 4 4 5 4 4 2 3 5 3 3 5 3 1 4 3 4 4 3 6 4 1 4 4 8 8 15 13 19 27 27 25 21 16 12 9 11 12 10 10 10
7 6 5 5 4 4 3 3 4 5 5 5 4 5 4 4 3 2 3 3 6 6 10 4 3 6 8 12 12 13 14 14 13 24 20 12 10 12 13 11 10 10 11
5 6 5 5 5 5 3 4 3 5 6 5 5 4 3 4 5 2 3 4 7 7 12 14 6 5 9 11 14 13 12 11 12 15 15 14 13 13 12 11 11 10 10
3 4 5 6 5 5 4 2 5 5 5 4 5 6 4 4 4 2 5 4 8 8 10 10 8 6 7 12 10 11 11 10 9 17 15 13 13 13 12 11 10 10 10
4 5 5 5 4 3 6 6 6 5 6 6 6 5 6 5 6 6 5 6 9 11 11 10 10 9 7 9 11 12 10 8 9 8 13 11 11 13 11 11 11 12 11
5 6 7 7 7 7 4 5 4 4 6 7 5 5 5 6 7 6 5 6 10 9 10 11 10 8 11 11 11 8 11 9 7 4 5 3 5 5 5 8 10 13 12
7 6 6 6 7 5 7 9 7 5 8 6 6 5 4 8 8 10 10 8 9 13 14 11 10 13 11 11 9 10 11 10 5 0 4 4 3 4 4 4 9 11 11
6 6 6 7 7 5 9 9 10 5 6 6 5 5 5 7 9 9 12 16 14 13 11 16 14 13 15 14 12 10 8 8 4 6 8 5 3 4 3 4 9 9 9
6 5 6 7 7 4 8 9 8 6 6 6 6 6 7 9 9 11 12 13 12 11 11 10 14 11 14 11 11 12 12 5 7 6 4 4 2 2 2 2 7 8 8
5 4 5 7 8 4 8 8 5 8 8 7 5 6 8 10 11 11 13 14 13 11 11 13 14 14 14 12 10 10 5 9 7 4 3 5 3 3 3 3 3 7 8
5 5 6 6 8 6 7 8 8 7 8 5 6 6 9 9 13 12 13 14 13 11 13 11 8 9 9 7 10 3 6 9 7 3 4 5 4 4 1 3 4 4 3
Wind_Direction
189 215 236 162 181 164 186 206 204 203 209 229 243 236 199 207 219 204 227 255 207 189 192 185 186 185 186 188 183 184 170 170 167 162 165 164 167 164 163 177 182 182 168
178 187 223 202 173 178 180 181 178 185 202 206 268 262 240 231 206 181 122 236 167 176 191 196 197 196 190 189 190 190 178 172 169 164 164 166 172 174 182 186 178 175 172
170 176 199 213 199 182 161 165 207 186 230 230 245 278 236 226 201 182 177 201 209 188 201 205 203 200 195 195 193 195 186 171 168 168 166 171 174 179 185 181 177 165 148
165 182 202 214 200 170 152 162 193 227 226 227 227 260 251 241 250 223 203 186 194 190 215 210 202 205 200 199 193 195 187 169 169 168 169 174 177 180 183 170 152 149 132
166 170 189 214 170 150 166 188 215 189 206 222 231 221 238 224 244 202 226 197 194 197 199 212 199 207 209 201 193 189 182 172 173 171 173 172 171 161 141 150 152 135 131
173 176 197 204 167 160 210 199 210 211 180 201 225 228 242 242 252 239 250 227 215 213 188 196 184 201 210 200 193 192 189 173 173 174 170 166 159 152 152 156 142 133 133
177 180 186 181 165 193 218 205 207 191 214 192 123 297 296 257 253 252 244 241 257 218 188 190 180 175 202 199 190 189 182 173 168 165 160 160 156 153 147 134 133 129 129
164 161 164 169 186 202 220 215 195 162 193 187 152 105 301 325 269 242 242 230 224 221 168 202 178 186 181 182 185 177 175 172 170 165 156 149 139 136 136 134 134 131 137
155 155 171 180 209 198 210 208 182 175 187 226 180 152 160 225 158 272 217 194 210 166 257 166 194 195 172 172 175 174 174 173 168 165 158 143 140 138 143 138 133 137 137
170 160 175 178 188 193 206 208 186 179 147 186 193 238 219 159 153 16 334 271 245 196 225 231 207 184 178 168 171 176 175 172 171 162 157 147 144 142 136 131 133 131 140
136 179 183 186 196 194 204 186 190 193 183 159 176 164 241 302 157 144 188 235 347 224 230 225 186 163 118 123 156 169 166 171 166 155 154 148 143 136 133 130 132 145 145
158 203 186 174 191 186 200 212 197 185 189 189 191 194 186 175 205 168 139 140 165 346 102 87 113 119 131 130 136 156 160 158 154 141 140 140 136 127 132 137 146 161 140
142 180 151 155 185 203 211 184 174 182 190 196 204 214 212 221 191 140 106 136 127 81 61 30 51 49 120 118 139 148 148 136 135 132 133 125 120 127 131 142 163 152 146
156 162 155 168 194 180 178 158 159 190 199 228 215 204 202 238 194 153 158 134 84 84 68 116 44 66 100 117 121 100 134 131 118 119 116 113 121 131 150 177 158 153 142
157 157 154 170 194 186 166 157 166 207 203 239 242 143 127 219 66 137 118 130 135 150 120 59 125 70 94 109 107 112 106 121 117 110 112 120 140 151 188 156 140 132 137
149 143 150 171 159 127 137 143 144 157 115 109 103 89 87 320 132 171 146 129 133 137 117 132 59 101 104 103 114 116 119 115 116 119 131 145 153 163 142 124 125 123 119
154 153 166 155 132 138 159 145 133 148 127 105 86 88 69 55 51 125 130 132 124 118 123 100 103 112 117 122 124 127 121 123 130 137 140 152 147 139 124 126 120 116 124
163 161 158 147 138 139 141 139 141 151 147 146 141 114 83 45 79 91 115 115 125 126 134 126 123 126 124 127 129 136 131 129 132 141 140 139 133 120 124 108 115 125 124
162 165 145 139 135 136 142 110 111 99 102 136 147 145 143 131 88 96 77 98 124 127 132 129 123 116 115 130 117 111 106 106 111 114 98 104 112 109 112 116 121 125 118
175 141 136 144 124 103 94 91 94 113 108 84 88 94 133 119 118 99 96 106 126 126 129 128 126 131 128 127 116 118 108 98 98 82 72 88 94 94 107 121 124 112 107
103 119 100 88 91 84 76 90 107 121 111 101 88 93 90 125 118 116 126 127 133 133 134 134 132 129 127 122 120 113 108 109 84 92 95 85 90 88 88 90 110 121 119
84 84 85 85 82 77 74 57 39 97 113 111 112 105 105 113 104 97 88 92 134 140 138 136 135 136 118 122 125 126 126 126 119 288 109 95 94 83 87 72 112 125 126
113 109 100 97 93 81 63 46 30 104 112 120 130 117 93 105 106 103 88 82 78 89 124 140 131 133 129 138 133 131 134 135 127 152 119 94 67 84 72 116 129 126 130
126 124 103 108 102 80 57 34 20 97 92 87 97 112 106 110 117 114 104 96 90 93 111 124 129 134 133 140 143 150 151 115 96 138 124 109 146 105 112 97 136 143 153
119 102 108 118 116 95 51 31 89 87 85 70 66 83 103 112 122 120 112 106 95 84 64 89 110 119 128 132 137 141 154 136 139 167 191 111 161 116 173 189 188 176 174
119 112 108 118 125 114 57 42 106 109 99 94 80 77 88 122 125 125 127 125 120 124 120 115 101 81 94 99 122 126 146 144 149 120 221 107 143 143 172 202 183 186 194